Content
SEND FEEDBACK

Daily
Averages
Monthly
Summary
United States of America

YARMOUTH, MASSACHUSETTS


Home > North America > United States > Massachusetts
Elevation: 52 feet     Latitude: 41 40N     Longitude: 070 16W

WEATHER
 
SELECT A DAY
Number of Records: 207,117;   Date Range: 1/1/95 - 7/27/14
 
SHARE

PRINT THIS DATA

[ ← Previous Day ]
WEATHER ALMANAC - APRIL 29, 2013
[ Next Day → ]
[ °C ]   °F
Weather ElementAverageHighLow
Temperature50.1 °F60.1 °F (12:56 pm)39.9 °F (4:56 am)
Dewpoint38.8 °F46.9 °F (7:56 am)25 °F (12:56 pm)
Humidity69.9 %97 % (4:56 am)26 % (12:56 pm)
Barometer30.27 in30.30 in (7:56 am)30.25 in (3:56 am)
Wind Speed4 mph10.4 mph (1:56 pm)
Weather ElementAverage
Visibility9.8 mi
Wind DirectionESE (102.6 °)

Weather ElementTotal
Precipitation---
Heating Degree Days15 (Base 65)
Averaged from 23 records on April 29, 2013
WEATHER CONDITIONS BREAKOUT
WIND DIRECTION BREAKOUT
WEATHER BY HOUR - APRIL 29, 2013
[ °C ]   °F
Local TimeTemperatureDewpointHumidityBarometerVisibilityWind DirectionWind SpeedGust SpeedPrecipitationEventsConditions
1:56 AM43.0 °F41.0 °F93 %30.28 in9.0 miCalmClear
2:56 AM41.0 °F39.9 °F96 %30.26 in10.0 miCalmClear
3:56 AM41.0 °F39.0 °F93 %30.25 in10.0 miCalmClear
4:56 AM39.9 °F39.0 °F97 %30.25 in10.0 miCalmClear
5:56 AM39.9 °F39.0 °F97 %30.27 in7.0 miCalmClear
6:56 AM46.0 °F43.0 °F89 %30.29 in10.0 miCalmClear
7:56 AM52.0 °F46.9 °F83 %30.30 in10.0 miSSE (160°)3.5 mphClear
8:56 AM54.0 °F44.1 °F69 %30.30 in10.0 miSouth (190°)5.8 mphClear
9:56 AM57.0 °F42.1 °F57 %30.29 in10.0 miSouth (180°)4.6 mphClear
10:56 AM57.0 °F39.0 °F51 %30.29 in10.0 miSouth (180°)6.9 mphClear
11:56 AM57.9 °F39.0 °F49 %30.28 in10.0 miSouth (190°)8.1 mphClear
12:56 PM60.1 °F25.0 °F26 %30.27 in10.0 miSouth (180°)8.1 mphClear
1:56 PM59.0 °F28.0 °F31 %30.26 in10.0 miSSW (200°)10.4 mphClear
2:56 PM59.0 °F25.0 °F27 %30.26 in10.0 miSSW (200°)8.1 mphClear
3:56 PM57.0 °F39.0 °F51 %30.26 in10.0 miSSE (150°)9.2 mphClear
4:56 PM55.9 °F39.9 °F55 %30.25 in10.0 miSouth (180°)8.1 mphClear
5:56 PM55.0 °F41.0 °F59 %30.25 in10.0 miSSW (200°)8.1 mphClear
6:56 PM52.0 °F42.1 °F69 %30.26 in10.0 miSouth (180°)5.8 mphClear
7:56 PM51.1 °F41.0 °F68 %30.26 in10.0 miSouth (170°)4.6 mph
8:56 PM48.0 °F41.0 °F77 %30.27 in10.0 miCalm
9:56 PM45.0 °F41.0 °F86 %30.28 in10.0 miCalmClear
10:56 PM42.1 °F39.9 °F92 %30.27 in10.0 miCalmClear
11:56 PM39.9 °F37.9 °F93 %30.27 in10.0 miCalmClear
Hourly data recorded from KHYA, located miles away from Yarmouth, Massachusetts







STORIES FROM OUR PARTNERS